Date,TemperatureHighF,TemperatureAvgF,TemperatureLowF,DewpointHighF,DewpointAvgF,DewpointLowF,HumidityHigh,HumidityAvg,HumidityLow,PressureMaxIn,PressureMinIn,WindSpeedMaxMPH,WindSpeedAvgMPH,GustSpeedMaxMPH,PrecipitationSumIn
2013-1-1,46.2,42.6,37.7,45.1,36.8,22.2,97,82,46,30.29,30.11,6,0,12,0.53
2013-1-2,43.1,38.4,35.1,42.3,36.0,32.9,97,91,83,30.30,30.07,6,2,10,0.07
2013-1-3,38.6,34.3,28.1,36.8,31.5,24.8,97,90,76,30.45,30.25,5,1,9,0.01
2013-1-4,39.4,30.1,23.8,25.9,22.1,20.0,88,73,50,30.57,30.44,6,2,11,0.00
2013-1-5,46.7,34.4,23.6,30.9,22.1,17.8,86,62,38,30.59,30.40,7,1,11,0.00
2013-1-6,45.9,37.5,32.1,37.6,32.1,27.2,91,81,70,30.39,30.20,7,2,11,0.01
2013-1-7,48.4,36.7,28.5,29.4,26.1,24.0,86,67,42,30.58,30.37,7,1,11,0.00
2013-1-8,51.0,39.6,30.4,43.2,33.5,26.4,92,79,62,30.62,30.51,1,0,2,0.00
2013-1-9,55.2,51.0,43.4,52.6,49.1,40.7,97,93,85,30.60,30.52,2,0,2,0.00
2013-1-10,60.0,52.5,47.3,52.8,49.4,46.1,97,90,76,30.62,30.46,3,1,5,0.07
2013-1-11,57.8,49.5,44.9,57.2,48.8,43.9,98,98,96,30.45,30.28,3,0,4,0.61
2013-1-12,70.0,60.5,56.4,62.3,57.8,54.7,98,91,74,30.30,30.18,1,0,3,0.01
2013-1-13,64.8,59.7,56.7,57.6,55.9,53.9,94,87,76,30.22,30.13,3,1,7,0.02
2013-1-14,61.0,57.0,44.1,59.7,55.8,43.0,97,96,92,30.24,30.13,9,1,14,1.17
2013-1-15,50.2,46.4,41.7,49.7,45.9,41.2,98,98,97,30.24,30.16,3,1,4,1.36
2013-1-16,54.4,49.0,41.8,53.8,48.5,41.3,98,98,97,30.17,30.10,3,0,5,0.49
2013-1-17,50.9,42.4,30.9,50.3,41.5,28.6,98,97,91,30.34,29.91,8,2,12,2.48
2013-1-18,43.6,34.1,26.3,28.8,23.4,18.0,92,67,37,30.67,30.34,4,1,9,0.02
2013-1-19,53.2,37.1,28.8,29.5,24.4,16.1,80,62,24,30.65,30.33,3,0,4,0.00
2013-1-20,54.2,42.6,33.9,36.0,28.3,21.2,74,57,44,30.33,30.21,6,2,8,0.00
2013-1-21,51.4,37.9,31.1,29.4,27.6,25.7,82,68,39,30.25,30.12,4,1,6,0.00
2013-1-22,29.0,24.4,18.6,6.9,1.8,-1.7,59,38,28,30.45,30.34,6,3,10,0.00
2013-1-23,41.6,28.9,19.9,22.5,12.1,1.0,63,49,41,30.55,30.32,3,1,6,0.00
2013-1-24,22.8,21.1,19.9,7.4,5.4,4.1,51,50,49,30.61,30.58,3,2,3,0.00
2013-1-25,35.6,25.5,17.3,34.5,18.4,3.0,96,76,47,30.63,30.28,7,1,10,0.05
2013-1-26,42.1,33.9,29.2,33.8,28.4,25.7,97,81,56,30.51,30.30,8,2,13,0.00
2013-1-27,39.4,32.8,26.6,31.1,27.0,23.2,93,79,64,30.70,30.51,2,0,4,0.00
2013-1-28,60.5,47.3,35.0,50.4,41.6,28.8,95,81,65,30.63,30.37,4,0,6,0.00
2013-1-29,65.0,50.6,44.6,53.7,44.4,40.2,89,80,64,30.38,30.29,3,0,4,0.00
2013-1-30,57.9,50.2,42.9,56.5,47.9,39.0,97,92,85,29.63,29.55,3,1,7,3.03
2013-1-31,42.9,34.8,27.6,39.0,23.4,17.5,91,65,42,30.18,29.62,5,1,14,0.00